Regional Weather Roundup
Issued by NWS

Home | Current Version | Previous Version | Text Only | Print | Product List | Glossary Off
Versions: 1 2 3 4 5 6 7 8 9 10 11 12 13 14 15 16 17 18 19 20 21 22 23 24 25 26 27 28 29 30 31 32 33 34 35 36 37 38 39 40 41 42 43 44 45 46 47 48 49 50

000
ASUS45 KBOI 272010
RWRID

IDAHO REGIONAL WEATHER ROUNDUP
NATIONAL WEATHER SERVICE BOISE ID
200 PM MDT MON MAR 27 2017

NOTE: "FAIR" INDICATES FEW OR NO CLOUDS BELOW 12000 FEET
WITH NO SIGNIFICANT WEATHER AND/OR OBSTRUCTIONS TO VISIBILITY

IDZ012-014-272100-
SOUTHWEST IDAHO


CITY           SKY/WX    TMP DP  RH WIND       PRES   REMARKS
BOISE          PTSUNNY   52  34  50 NW15      30.02S
CALDWELL       MOSUNNY   53  35  50 NW15G24   30.03S
MOUNTAIN HOME  MOSUNNY   53  35  51 NW20G31   30.00S
$$

IDZ016-017-272100-
SOUTHCENTRAL IDAHO


CITY           SKY/WX    TMP DP  RH WIND       PRES   REMARKS
BURLEY         LGT RAIN  45  34  65 W15       29.94S
JEROME         PTSUNNY   49  35  58 W25       29.95S
TWIN FALLS     PTSUNNY   48  33  56 W23G36    29.96S
$$

IDZ019>023-272100-
SOUTHEAST IDAHO


CITY           SKY/WX    TMP DP  RH WIND       PRES   REMARKS
IDAHO FALLS    CLOUDY    43  38  82 SW13      29.90S
POCATELLO      CLOUDY    43  39  86 SW10      29.93S
REXBURG        LGT RAIN  40  38  93 N3        29.89S
$$

IDZ006-010-011-018-031-032-272100-
CENTRAL IDAHO MOUNTAINS


CITY           SKY/WX    TMP DP  RH WIND       PRES   REMARKS
MCCALL         PTSUNNY   38  27  64 NW7       29.97S WCI  33
HAILEY         PTSUNNY   45  36  70 SE10      29.92S
STANLEY          N/A     38  26  62 N5        29.93S WCI  34
SALMON         CLOUDY    45  32  61 N5        29.92R
CHALLIS        CLOUDY    46  27  47 S9        29.87F
$$

IDZ002-004-006-007-026-272100-
NORTHERN IDAHO


CITY           SKY/WX    TMP DP  RH WIND       PRES   REMARKS
LEWISTON       CLOUDY    53  36  52 CALM      30.05R
LOWELL           N/A     46  40  79 CALM      30.08S
COEUR D`ALENE  PTSUNNY   48  37  65 SW17      30.02R
MULLAN PASS    SNOW      30  30 100 VRB6      29.95R VSB 1/4 WCI  24
$$



USA.gov is the U.S. government's official web portal to all federal, state and local government web resources and services.